,,Stat6,,Stat2,,Stat8,,Stat9,,Stat10,,Wind1,,Wind1,
time,status,PA1M_AVG,status,PR1M_SUM,status,RH1M_AVG,status,SR1M_AVG,status,TA1M_AVG,status,W1dAve1m,status,W1sAve1m,
2009-08-18, 00:00:00,VALID,917.033,VALID,0,VALID,100,VALID,-0.0509425,VALID,20.0236,VALID,130,VALID,0.0710227,
2009-08-18, 00:01:00,VALID,917.006,VALID,0,VALID,100,VALID,-0.0849042,VALID,20.046,VALID,135,VALID,0,
2009-08-18, 00:02:00,VALID,916.986,VALID,0,VALID,100,VALID,-0.101885,VALID,20.0658,VALID,136,VALID,0,
2009-08-18, 00:03:00,VALID,916.966,VALID,0,VALID,100,VALID,-0.0849042,VALID,20.0855,VALID,136,VALID,0,
2009-08-18, 00:04:00,VALID,916.973,VALID,0,VALID,100,VALID,-0.0679233,VALID,20.0817,VALID,136,VALID,0.0441497,
2009-08-18, 00:05:00,VALID,916.972,VALID,0,VALID,100,VALID,-0.101885,VALID,20.0712,VALID,143,VALID,0.0405869,
2009-08-18, 00:06:00,VALID,916.973,VALID,0,VALID,100,VALID,-0.0849042,VALID,20.0882,VALID,141,VALID,0.00475543,
2009-08-18, 00:07:00,VALID,916.975,VALID,0,VALID,100,VALID,-0.0849042,VALID,20.108,VALID,138,VALID,0,
2009-08-18, 00:08:00,VALID,916.958,VALID,0,VALID,100,VALID,-0.0679233,VALID,20.1142,VALID,142,VALID,0.0689787,
2009-08-18, 00:09:00,VALID,916.971,VALID,0,VALID,100,VALID,-0.0849042,VALID,20.1269,VALID,153,VALID,0.00230824,
2009-08-18, 00:10:00,VALID,916.964,VALID,0,VALID,100,VALID,-0.101885,VALID,20.1304,VALID,133,VALID,0,
2009-08-18, 00:11:00,VALID,916.946,VALID,0,VALID,100,VALID,-0.0849042,VALID,20.1367,VALID,133,VALID,0,
2009-08-18, 00:12:00,VALID,916.945,VALID,0,VALID,100,VALID,-0.0679233,VALID,20.1302,VALID,140,VALID,0,
2009-08-18, 00:13:00,VALID,916.93,VALID,0,VALID,100,VALID,-0.0509425,VALID,20.1339,VALID,133,VALID,0,
2009-08-18, 00:14:00,VALID,916.926,VALID,0,VALID,100,VALID,-0.0679233,VALID,20.1207,VALID,134,VALID,0,
2009-08-18, 00:15:00,VALID,916.924,VALID,0,VALID,100,VALID,-0.0679233,VALID,20.1107,VALID,133,VALID,0,
2009-08-18, 00:16:00,VALID,916.91,VALID,0,VALID,100,VALID,-0.0509425,VALID,20.0907,VALID,142,VALID,0,
2009-08-18, 00:17:00,VALID,916.91,VALID,0,VALID,100,VALID,-0.0849042,VALID,20.0785,VALID,156,VALID,0,
2009-08-18, 00:18:00,VALID,916.895,VALID,0,VALID,100,VALID,-0.0849042,VALID,20.0688,VALID,154,VALID,0,
2009-08-18, 00:19:00,VALID,916.884,VALID,0,VALID,100,VALID,-0.0849042,VALID,20.0423,VALID,155,VALID,0,
2009-08-18, 00:20:00,VALID,916.874,VALID,0,VALID,100,VALID,-0.0849042,VALID,20.0166,VALID,154,VALID,0,
2009-08-18, 00:21:00,VALID,916.868,VALID,0,VALID,100,VALID,-0.101885,VALID,19.9809,VALID,152,VALID,0,
2009-08-18, 00:22:00,VALID,916.852,VALID,0,VALID,100,VALID,-0.0509425,VALID,19.9582,VALID,154,VALID,0,
2009-08-18, 00:23:00,VALID,916.857,VALID,0,VALID,100,VALID,-0.0679233,VALID,19.9155,VALID,151,VALID,0,
2009-08-18, 00:24:00,VALID,916.822,VALID,0,VALID,100,VALID,-0.101885,VALID,19.9035,VALID,142,VALID,0,
2009-08-18, 00:25:00,VALID,916.816,VALID,0,VALID,100,VALID,-0.101885,VALID,19.8905,VALID,142,VALID,0,
2009-08-18, 00:26:00,VALID,916.8,VALID,0,VALID,100,VALID,-0.101885,VALID,19.8905,VALID,148,VALID,0,
2009-08-18, 00:27:00,VALID,916.799,VALID,0,VALID,100,VALID,-0.101885,VALID,19.897,VALID,155,VALID,0,
2009-08-18, 00:28:00,VALID,916.795,VALID,0,VALID,100,VALID,-0.0679233,VALID,19.8833,VALID,159,VALID,0,
2009-08-18, 00:29:00,VALID,916.793,VALID,0,VALID,100,VALID,-0.0509425,VALID,19.873,VALID,152,VALID,0,
2009-08-18, 00:30:00,VALID,916.8,VALID,0,VALID,100,VALID,-0.0849042,VALID,19.8406,VALID,151,VALID,0.0612981,
2009-08-18, 00:31:00,VALID,916.796,VALID,0,VALID,100,VALID,-0.0509425,VALID,19.8316,VALID,149,VALID,0.0535974,
2009-08-18, 00:32:00,VALID,916.806,VALID,0,VALID,100,VALID,-0.0849042,VALID,19.8149,VALID,142,VALID,0.0474466,
2009-08-18, 00:33:00,VALID,916.811,VALID,0,VALID,100,VALID,-0.101885,VALID,19.8051,VALID,153,VALID,0,
2009-08-18, 00:34:00,VALID,916.828,VALID,0,VALID,100,VALID,-0.0849042,VALID,19.8089,VALID,147,VALID,0,
2009-08-18, 00:35:00,VALID,916.831,VALID,0,VALID,100,VALID,-0.0509425,VALID,19.8119,VALID,149,VALID,0,
2009-08-18, 00:36:00,VALID,916.821,VALID,0,VALID,100,VALID,-0.0679233,VALID,19.7981,VALID,146,VALID,0,
2009-08-18, 00:37:00,VALID,916.805,VALID,0,VALID,100,VALID,-0.0849042,VALID,19.8114,VALID,151,VALID,0,
2009-08-18, 00:38:00,VALID,916.787,VALID,0,VALID,100,VALID,-0.0509425,VALID,19.8371,VALID,160,VALID,0,
2009-08-18, 00:39:00,VALID,916.781,VALID,0,VALID,100,VALID,-0.0339617,VALID,19.8665,VALID,159,VALID,0,
2009-08-18, 00:40:00,VALID,916.786,VALID,0,VALID,100,VALID,-0.0509425,VALID,19.8935,VALID,156,VALID,0,
2009-08-18, 00:41:00,VALID,916.776,VALID,0,VALID,100,VALID,-0.0679233,VALID,19.8833,VALID,145,VALID,0,
2009-08-18, 00:42:00,VALID,916.769,VALID,0,VALID,100,VALID,-0.0509425,VALID,19.87,VALID,147,VALID,0,
2009-08-18, 00:43:00,VALID,916.766,VALID,0,VALID,100,VALID,-0.0169808,VALID,19.8568,VALID,132,VALID,0,
2009-08-18, 00:44:00,VALID,916.756,VALID,0,VALID,100,VALID,-0.0679233,VALID,19.8598,VALID,142,VALID,0,
2009-08-18, 00:45:00,VALID,916.737,VALID,0,VALID,100,VALID,-0.0339617,VALID,19.8955,VALID,165,VALID,0.000186012,
2009-08-18, 00:46:00,VALID,916.724,VALID,0,VALID,100,VALID,-0.0509425,VALID,19.9347,VALID,165,VALID,0.0505952,
2009-08-18, 00:47:00,VALID,916.707,VALID,0,VALID,100,VALID,-0.0509425,VALID,19.9636,VALID,162,VALID,0.130907,
2009-08-18, 00:48:00,VALID,916.691,VALID,0,VALID,100,VALID,-0.0339617,VALID,19.9636,VALID,155,VALID,0.028125,
2009-08-18, 00:49:00,VALID,916.682,VALID,0,VALID,100,VALID,-0.0339617,VALID,19.9669,VALID,147,VALID,0.00223214,
2009-08-18, 00:50:00,VALID,916.667,VALID,0,VALID,100,VALID,-0.0339617,VALID,19.9639,VALID,166,VALID,0.103885,
2009-08-18, 00:51:00,VALID,916.654,VALID,0,VALID,100,VALID,-0.0849042,VALID,19.9442,VALID,163,VALID,0.0598958,
2009-08-18, 00:52:00,VALID,916.653,VALID,0,VALID,100,VALID,-0.0339617,VALID,19.9542,VALID,150,VALID,0.118712,
2009-08-18, 00:53:00,VALID,916.653,VALID,0,VALID,100,VALID,-0.0169808,VALID,19.9574,VALID,162,VALID,0.10026,
2009-08-18, 00:54:00,VALID,916.631,VALID,0,VALID,100,VALID,-0.0509425,VALID,19.9604,VALID,172,VALID,0.265067,
2009-08-18, 00:55:00,VALID,916.61,VALID,0,VALID,100,VALID,-0.0509425,VALID,19.9766,VALID,170,VALID,0.195313,
2009-08-18, 00:56:00,VALID,916.604,VALID,0,VALID,100,VALID,-0.0339617,VALID,19.9831,VALID,167,VALID,0.0615916,
2009-08-18, 00:57:00,VALID,916.611,VALID,0,VALID,100,VALID,-0.0679233,VALID,20.0156,VALID,162,VALID,0.00363372,
2009-08-18, 00:58:00,VALID,916.605,VALID,0,VALID,100,VALID,-0.0339617,VALID,20.081,VALID,161,VALID,0.0751202,
2009-08-18, 00:59:00,VALID,916.605,VALID,0,VALID,100,VALID,-0.0509425,VALID,20.1129,VALID,147,VALID,0,
2009-08-18, 01:00:00,VALID,916.611,VALID,0,VALID,100,VALID,-0.0339617,VALID,20.1064,VALID,132,VALID,0,
2009-08-18, 01:01:00,VALID,916.614,VALID,0,VALID,100,VALID,-0.0509425,VALID,20.1097,VALID,147,VALID,0,
2009-08-18, 01:02:00,VALID,916.606,VALID,0,VALID,100,VALID,-0.0339617,VALID,20.1259,VALID,156,VALID,0,
2009-08-18, 01:03:00,VALID,916.601,VALID,0,VALID,100,VALID,-0.0509425,VALID,20.1259,VALID,147,VALID,0,
2009-08-18, 01:04:00,VALID,916.583,VALID,0,VALID,100,VALID,-0.0509425,VALID,20.1359,VALID,155,VALID,0,
2009-08-18, 01:05:00,VALID,916.587,VALID,0,VALID,100,VALID,-0.0509425,VALID,20.1421,VALID,163,VALID,0,
2009-08-18, 01:06:00,VALID,916.575,VALID,0,VALID,100,VALID,-0.0509425,VALID,20.1876,VALID,161,VALID,0,
2009-08-18, 01:07:00,VALID,916.576,VALID,0,VALID,100,VALID,-0.0679233,VALID,20.2303,VALID,161,VALID,0.0357921,
2009-08-18, 01:08:00,VALID,916.565,VALID,0,VALID,100,VALID,-0.0849042,VALID,20.2719,VALID,164,VALID,0,
2009-08-18, 01:09:00,VALID,916.56,VALID,0,VALID,99.9939,VALID,-0.0679233,VALID,20.3339,VALID,167,VALID,0,
2009-08-18, 01:10:00,VALID,916.547,VALID,0,VALID,99.8235,VALID,-0.101885,VALID,20.3598,VALID,163,VALID,0,
2009-08-18, 01:11:00,VALID,916.548,VALID,0,VALID,99.69,VALID,-0.101885,VALID,20.389,VALID,163,VALID,0,
2009-08-18, 01:12:00,VALID,916.551,VALID,0,VALID,99.545,VALID,0,VALID,20.4437,VALID,164,VALID,0,
2009-08-18, 01:13:00,VALID,916.556,VALID,0,VALID,99.3556,VALID,0.0339617,VALID,20.4889,VALID,165,VALID,0,
2009-08-18, 01:14:00,VALID,916.543,VALID,0,VALID,99.0211,VALID,0.0169808,VALID,20.5046,VALID,165,VALID,0,
2009-08-18, 01:15:00,VALID,916.543,VALID,0,VALID,98.3612,VALID,0.0339617,VALID,20.4497,VALID,151,VALID,0,
2009-08-18, 01:16:00,VALID,916.543,VALID,0,VALID,97.658,VALID,0.0339617,VALID,20.2679,VALID,42,VALID,0,
2009-08-18, 01:17:00,VALID,916.531,VALID,0,VALID,98.248,VALID,0.0509425,VALID,20.1017,VALID,26,VALID,0,
2009-08-18, 01:18:00,VALID,916.516,VALID,0,VALID,98.8749,VALID,0.0339617,VALID,20.0338,VALID,23,VALID,0,
2009-08-18, 01:19:00,VALID,916.502,VALID,0,VALID,99.3924,VALID,0.0169808,VALID,19.9926,VALID,23,VALID,0,
2009-08-18, 01:20:00,VALID,916.491,VALID,0,VALID,99.7904,VALID,0.0509425,VALID,19.9751,VALID,23,VALID,0,
2009-08-18, 01:21:00,VALID,916.476,VALID,0,VALID,99.999,VALID,0.0339617,VALID,19.9916,VALID,22,VALID,0,
2009-08-18, 01:22:00,VALID,916.48,VALID,0,VALID,100,VALID,0.0679233,VALID,20.0403,VALID,317,VALID,0,
2009-08-18, 01:23:00,VALID,916.488,VALID,0,VALID,99.8146,VALID,0,VALID,20.0245,VALID,316,VALID,0,
2009-08-18, 01:24:00,VALID,916.486,VALID,0,VALID,99.6684,VALID,-0.0169808,VALID,19.9986,VALID,316,VALID,0,
2009-08-18, 01:25:00,VALID,916.474,VALID,0,VALID,99.7243,VALID,0.0679233,VALID,19.9304,VALID,316,VALID,0,
2009-08-18, 01:26:00,VALID,916.456,VALID,0,VALID,99.9939,VALID,0.0339617,VALID,19.9172,VALID,316,VALID,0,
2009-08-18, 01:27:00,VALID,916.432,VALID,0,VALID,100,VALID,0.0169808,VALID,19.8917,VALID,316,VALID,0,
2009-08-18, 01:28:00,VALID,916.418,VALID,0,VALID,99.9125,VALID,-0.0169808,VALID,19.8273,VALID,316,VALID,0,
2009-08-18, 01:29:00,VALID,916.431,VALID,0,VALID,99.9939,VALID,-0.0169808,VALID,19.7724,VALID,316,VALID,0,
2009-08-18, 01:30:00,VALID,916.435,VALID,0,VALID,100,VALID,0.0169808,VALID,19.7657,VALID,316,VALID,0,
2009-08-18, 01:31:00,VALID,916.438,VALID,0,VALID,100,VALID,0.0509425,VALID,19.7722,VALID,316,VALID,0,
2009-08-18, 01:32:00,VALID,916.435,VALID,0,VALID,100,VALID,-0.0169808,VALID,19.7822,VALID,316,VALID,0,
2009-08-18, 01:33:00,VALID,916.442,VALID,0,VALID,100,VALID,0,VALID,19.7592,VALID,316,VALID,0,
2009-08-18, 01:34:00,VALID,916.44,VALID,0,VALID,100,VALID,-0.0339617,VALID,19.7105,VALID,323,VALID,0,
2009-08-18, 01:35:00,VALID,916.444,VALID,0,VALID,100,VALID,0,VALID,19.6748,VALID,356,VALID,0,
2009-08-18, 01:36:00,VALID,916.442,VALID,0,VALID,100,VALID,-0.0169808,VALID,19.6976,VALID,348,VALID,0,
2009-08-18, 01:37:00,VALID,916.449,VALID,0,VALID,100,VALID,0,VALID,19.6978,VALID,357,VALID,0,
2009-08-18, 01:38:00,VALID,916.45,VALID,0,VALID,100,VALID,-0.0509425,VALID,19.6846,VALID,10,VALID,0,
2009-08-18, 01:39:00,VALID,916.456,VALID,0,VALID,100,VALID,0,VALID,19.6751,VALID,5,VALID,0,
2009-08-18, 01:40:00,VALID,916.444,VALID,0,VALID,100,VALID,0,VALID,19.6908,INVALID,360,VALID,0,
2009-08-18, 01:41:00,VALID,916.429,VALID,0,VALID,100,VALID,-0.0339617,VALID,19.7467,INVALID,360,VALID,0,
2009-08-18, 01:42:00,VALID,916.422,VALID,0,VALID,100,VALID,0,VALID,19.717,VALID,6,VALID,0,
2009-08-18, 01:43:00,VALID,916.404,VALID,0,VALID,100,VALID,0,VALID,19.6554,VALID,11,VALID,0,
2009-08-18, 01:44:00,VALID,916.39,VALID,0,VALID,100,VALID,-0.0339617,VALID,19.6097,VALID,18,VALID,0,
2009-08-18, 01:45:00,VALID,916.376,VALID,0,VALID,100,VALID,-0.0339617,VALID,19.6172,VALID,28,VALID,0,
2009-08-18, 01:46:00,VALID,916.384,VALID,0,VALID,100,VALID,-0.0169808,VALID,19.6037,VALID,28,VALID,0,
2009-08-18, 01:47:00,VALID,916.381,VALID,0,VALID,100,VALID,0,VALID,19.6002,VALID,28,VALID,0,
2009-08-18, 01:48:00,VALID,916.389,VALID,0,VALID,100,VALID,0,VALID,19.597,VALID,25,VALID,0,
2009-08-18, 01:49:00,VALID,916.407,VALID,0,VALID,100,VALID,-0.0339617,VALID,19.6294,VALID,10,VALID,0,
2009-08-18, 01:50:00,VALID,916.423,VALID,0,VALID,100,VALID,0,VALID,19.6781,VALID,24,VALID,0,
2009-08-18, 01:51:00,VALID,916.426,VALID,0,VALID,100,VALID,0,VALID,19.6684,VALID,24,VALID,0,
2009-08-18, 01:52:00,VALID,916.421,VALID,0,VALID,100,VALID,0,VALID,19.6197,VALID,360,VALID,0,
2009-08-18, 01:53:00,VALID,916.404,VALID,0,VALID,100,VALID,0,VALID,19.6197,VALID,324,VALID,0,
2009-08-18, 01:54:00,VALID,916.417,VALID,0,VALID,100,VALID,-0.0169808,VALID,19.6264,VALID,324,VALID,0,
2009-08-18, 01:55:00,VALID,916.426,VALID,0,VALID,100,VALID,-0.0169808,VALID,19.6489,VALID,324,VALID,0,
2009-08-18, 01:56:00,VALID,916.428,VALID,0,VALID,100,VALID,-0.0169808,VALID,19.6426,VALID,324,VALID,0,
2009-08-18, 01:57:00,VALID,916.436,VALID,0,VALID,100,VALID,-0.0169808,VALID,19.5937,VALID,324,VALID,0,
2009-08-18, 01:58:00,VALID,916.439,VALID,0,VALID,100,VALID,-0.0339617,VALID,19.5905,VALID,324,VALID,0,
2009-08-18, 01:59:00,VALID,916.426,VALID,0,VALID,100,VALID,-0.0169808,VALID,19.5743,VALID,324,VALID,0,
2009-08-18, 02:00:00,VALID,916.432,VALID,0,VALID,100,VALID,-0.0169808,VALID,19.5615,VALID,324,VALID,0,
2009-08-18, 02:01:00,VALID,916.437,VALID,0,VALID,100,VALID,-0.0339617,VALID,19.5323,VALID,324,VALID,0,
2009-08-18, 02:02:00,VALID,916.453,VALID,0,VALID,100,VALID,-0.0509425,VALID,19.4544,VALID,324,VALID,0,
2009-08-18, 02:03:00,VALID,916.469,VALID,0,VALID,100,VALID,-0.0339617,VALID,19.3604,VALID,12,VALID,0,
2009-08-18, 02:04:00,VALID,916.459,VALID,0,VALID,100,VALID,-0.0169808,VALID,19.3539,VALID,27,VALID,0,
2009-08-18, 02:05:00,VALID,916.449,VALID,0,VALID,100,VALID,-0.0339617,VALID,19.3828,VALID,50,VALID,0,
2009-08-18, 02:06:00,VALID,916.449,VALID,0,VALID,100,VALID,-0.0339617,VALID,19.4225,VALID,51,VALID,0,
2009-08-18, 02:07:00,VALID,916.434,VALID,0,VALID,100,VALID,0,VALID,19.4512,VALID,51,VALID,0,
2009-08-18, 02:08:00,VALID,916.425,VALID,0,VALID,100,VALID,-0.0339617,VALID,19.4901,VALID,51,VALID,0,
2009-08-18, 02:09:00,VALID,916.405,VALID,0,VALID,100,VALID,-0.0679233,VALID,19.5191,VALID,51,VALID,0,
2009-08-18, 02:10:00,VALID,916.402,VALID,0,VALID,100,VALID,-0.0169808,VALID,19.5483,VALID,51,VALID,0,
2009-08-18, 02:11:00,VALID,916.367,VALID,0,VALID,100,VALID,0,VALID,19.5353,VALID,51,VALID,0,
2009-08-18, 02:12:00,VALID,916.369,VALID,0,VALID,100,VALID,-0.0169808,VALID,19.5223,VALID,51,VALID,0,
2009-08-18, 02:13:00,VALID,916.352,VALID,0,VALID,100,VALID,-0.0339617,VALID,19.4866,VALID,51,VALID,0,
2009-08-18, 02:14:00,VALID,916.345,VALID,0,VALID,100,VALID,-0.0169808,VALID,19.4153,VALID,51,VALID,0,
2009-08-18, 02:15:00,VALID,916.342,VALID,0,VALID,100,VALID,-0.0169808,VALID,19.3209,VALID,51,VALID,0,
2009-08-18, 02:16:00,VALID,916.334,VALID,0,VALID,100,VALID,0,VALID,19.308,VALID,51,VALID,0,
2009-08-18, 02:17:00,VALID,916.332,VALID,0,VALID,100,VALID,-0.0339617,VALID,19.3277,VALID,51,VALID,0,
2009-08-18, 02:18:00,VALID,916.325,VALID,0,VALID,100,VALID,-0.0169808,VALID,19.3763,VALID,51,VALID,0,
2009-08-18, 02:19:00,VALID,916.296,VALID,0,VALID,100,VALID,0,VALID,19.4185,VALID,49,VALID,0,
2009-08-18, 02:20:00,VALID,916.277,VALID,0,VALID,100,VALID,0,VALID,19.4315,VALID,41,VALID,0,
2009-08-18, 02:21:00,VALID,916.258,VALID,0,VALID,100,VALID,0,VALID,19.4153,VALID,36,VALID,0,
2009-08-18, 02:22:00,VALID,916.262,VALID,0,VALID,100,VALID,-0.0339617,VALID,19.4285,VALID,360,VALID,0,
2009-08-18, 02:23:00,VALID,916.266,VALID,0,VALID,100,VALID,-0.0169808,VALID,19.4542,VALID,357,VALID,0,
2009-08-18, 02:24:00,VALID,916.272,VALID,0,VALID,100,VALID,-0.0169808,VALID,19.4961,INVALID,360,VALID,0,
2009-08-18, 02:25:00,VALID,916.284,VALID,0,VALID,100,VALID,-0.0509425,VALID,19.5288,INVALID,360,VALID,0,
2009-08-18, 02:26:00,VALID,916.283,VALID,0,VALID,100,VALID,-0.0339617,VALID,19.5548,VALID,345,VALID,0,
2009-08-18, 02:27:00,VALID,916.279,VALID,0,VALID,100,VALID,-0.0509425,VALID,19.5191,INVALID,360,VALID,0,
2009-08-18, 02:28:00,VALID,916.268,VALID,0,VALID,100,VALID,-0.0509425,VALID,19.4505,INVALID,360,VALID,0,
2009-08-18, 02:29:00,VALID,916.239,VALID,0,VALID,100,VALID,-0.0169808,VALID,19.4085,INVALID,360,VALID,0,
2009-08-18, 02:30:00,VALID,916.22,VALID,0,VALID,100,VALID,-0.0339617,VALID,19.3724,INVALID,360,VALID,0,
2009-08-18, 02:31:00,VALID,916.208,VALID,0,VALID,100,VALID,-0.0169808,VALID,19.3406,INVALID,360,VALID,0,
2009-08-18, 02:32:00,VALID,916.181,VALID,0,VALID,100,VALID,-0.0169808,VALID,19.3209,VALID,342,VALID,0,
2009-08-18, 02:33:00,VALID,916.174,VALID,0,VALID,100,VALID,-0.0509425,VALID,19.3114,VALID,342,VALID,0,
2009-08-18, 02:34:00,VALID,916.154,VALID,0,VALID,100,VALID,-0.0169808,VALID,19.292,VALID,342,VALID,0,
2009-08-18, 02:35:00,VALID,916.15,VALID,0,VALID,100,VALID,-0.0679233,VALID,19.2533,INVALID,360,VALID,0,
2009-08-18, 02:36:00,VALID,916.135,VALID,0,VALID,100,VALID,-0.0679233,VALID,19.2114,VALID,342,VALID,0,
2009-08-18, 02:37:00,VALID,916.135,VALID,0,VALID,100,VALID,-0.0679233,VALID,19.1754,VALID,342,VALID,0,
2009-08-18, 02:38:00,VALID,916.128,VALID,0,VALID,100,VALID,-0.0679233,VALID,19.1395,VALID,356,VALID,0,
2009-08-18, 02:39:00,VALID,916.124,VALID,0,VALID,100,VALID,-0.0339617,VALID,19.1395,VALID,76,VALID,0,
2009-08-18, 02:40:00,VALID,916.119,VALID,0,VALID,100,VALID,-0.0169808,VALID,19.1525,VALID,78,VALID,0,
2009-08-18, 02:41:00,VALID,916.099,VALID,0,VALID,100,VALID,-0.0339617,VALID,19.1657,VALID,80,VALID,0,
2009-08-18, 02:42:00,VALID,916.089,VALID,0,VALID,100,VALID,-0.0679233,VALID,19.1979,VALID,80,VALID,0,
2009-08-18, 02:43:00,VALID,916.067,VALID,0,VALID,100,VALID,-0.0679233,VALID,19.1784,VALID,80,VALID,0,
2009-08-18, 02:44:00,VALID,916.056,VALID,0,VALID,100,VALID,-0.101885,VALID,19.1689,VALID,80,VALID,0,
2009-08-18, 02:45:00,VALID,916.03,VALID,0,VALID,100,VALID,-0.101885,VALID,19.2603,VALID,80,VALID,0,
2009-08-18, 02:46:00,VALID,916.03,VALID,0,VALID,100,VALID,-0.0849042,VALID,19.2987,VALID,80,VALID,0,
2009-08-18, 02:47:00,VALID,916.025,VALID,0,VALID,100,VALID,-0.101885,VALID,19.3344,VALID,80,VALID,0,
2009-08-18, 02:48:00,VALID,916.014,VALID,0,VALID,100,VALID,-0.0849042,VALID,19.3569,VALID,80,VALID,0,
2009-08-18, 02:49:00,VALID,916.001,VALID,0,VALID,100,VALID,-0.0849042,VALID,19.3374,VALID,80,VALID,0,
2009-08-18, 02:50:00,VALID,915.984,VALID,0,VALID,100,VALID,-0.0679233,VALID,19.3544,VALID,80,VALID,0,
2009-08-18, 02:51:00,VALID,915.973,VALID,0,VALID,100,VALID,-0.0509425,VALID,19.3309,VALID,79,VALID,0,
2009-08-18, 02:52:00,VALID,915.957,VALID,0,VALID,100,VALID,-0.0679233,VALID,19.3147,VALID,82,VALID,0,
2009-08-18, 02:53:00,VALID,915.928,VALID,0,VALID,100,VALID,-0.0679233,VALID,19.3247,VALID,95,VALID,0,
2009-08-18, 02:54:00,VALID,915.905,VALID,0,VALID,100,VALID,-0.0509425,VALID,19.289,VALID,109,VALID,0,
2009-08-18, 02:55:00,VALID,915.874,VALID,0,VALID,100,VALID,-0.0509425,VALID,19.2336,VALID,138,VALID,0,
2009-08-18, 02:56:00,VALID,915.838,VALID,0,VALID,100,VALID,-0.0339617,VALID,19.2011,VALID,139,VALID,0,
2009-08-18, 02:57:00,VALID,915.804,VALID,0,VALID,100,VALID,-0.0509425,VALID,19.1914,VALID,139,VALID,0,
2009-08-18, 02:58:00,VALID,915.803,VALID,0,VALID,100,VALID,-0.0339617,VALID,19.149,VALID,132,VALID,0,
2009-08-18, 02:59:00,VALID,915.822,VALID,0,VALID,100,VALID,-0.0339617,VALID,19.1195,VALID,112,VALID,0,
2009-08-18, 03:00:00,VALID,915.865,VALID,0,VALID,100,VALID,-0.0509425,VALID,19.1103,VALID,111,VALID,0,
2009-08-18, 03:01:00,VALID,915.875,VALID,0,VALID,100,VALID,-0.0509425,VALID,19.0846,VALID,108,VALID,0,
2009-08-18, 03:02:00,VALID,915.894,VALID,0,VALID,100,VALID,-0.0679233,VALID,19.0289,VALID,95,VALID,0.0859375,
2009-08-18, 03:03:00,VALID,915.887,VALID,0,VALID,100,VALID,-0.0509425,VALID,18.9967,VALID,90,VALID,0.00621449,
2009-08-18, 03:04:00,VALID,915.887,VALID,0,VALID,100,VALID,-0.0679233,VALID,18.974,VALID,90,VALID,0.00446429,
2009-08-18, 03:05:00,VALID,915.872,VALID,0,VALID,100,VALID,-0.0509425,VALID,18.9543,VALID,72,VALID,0.0325838,
2009-08-18, 03:06:00,VALID,915.852,VALID,0,VALID,100,VALID,-0.0339617,VALID,18.9833,VALID,71,VALID,0.0025436,
2009-08-18, 03:07:00,VALID,915.828,VALID,0,VALID,100,VALID,-0.0339617,VALID,19.003,VALID,51,VALID,0.00364583,
2009-08-18, 03:08:00,VALID,915.791,VALID,0,VALID,100,VALID,-0.0679233,VALID,19.0292,VALID,44,VALID,0,
2009-08-18, 03:09:00,VALID,915.763,VALID,0,VALID,100,VALID,-0.0339617,VALID,19.0389,VALID,38,VALID,0,
2009-08-18, 03:10:00,VALID,915.745,VALID,0,VALID,100,VALID,-0.0679233,VALID,19.0487,VALID,42,VALID,0,
2009-08-18, 03:11:00,VALID,915.719,VALID,0,VALID,100,VALID,-0.0339617,VALID,19.0422,VALID,42,VALID,0,
2009-08-18, 03:12:00,VALID,915.701,VALID,0,VALID,100,VALID,-0.0679233,VALID,19.0259,VALID,42,VALID,0,
2009-08-18, 03:13:00,VALID,915.703,VALID,0,VALID,100,VALID,-0.0509425,VALID,18.9873,VALID,42,VALID,0,
2009-08-18, 03:14:00,VALID,915.693,VALID,0,VALID,100,VALID,-0.0169808,VALID,18.9678,VALID,42,VALID,0,
2009-08-18, 03:15:00,VALID,915.692,VALID,0,VALID,100,VALID,0,VALID,19.016,VALID,42,VALID,0,
2009-08-18, 03:16:00,VALID,915.676,VALID,0,VALID,100,VALID,-0.0169808,VALID,19.0976,VALID,42,VALID,0,
2009-08-18, 03:17:00,VALID,915.677,VALID,0,VALID,100,VALID,0,VALID,19.133,VALID,42,VALID,0,
2009-08-18, 03:18:00,VALID,915.692,VALID,0,VALID,100,VALID,-0.0169808,VALID,19.1525,VALID,42,VALID,0,
2009-08-18, 03:19:00,VALID,915.696,VALID,0,VALID,100,VALID,-0.0679233,VALID,19.1492,VALID,42,VALID,0,
2009-08-18, 03:20:00,VALID,915.701,VALID,0,VALID,100,VALID,0,VALID,19.1425,VALID,42,VALID,0,
2009-08-18, 03:21:00,VALID,915.698,VALID,0,VALID,100,VALID,0,VALID,19.1525,VALID,42,VALID,0,
2009-08-18, 03:22:00,VALID,915.703,VALID,0,VALID,100,VALID,0,VALID,19.1916,VALID,69,VALID,0,
2009-08-18, 03:23:00,VALID,915.691,VALID,0,VALID,100,VALID,-0.0169808,VALID,19.1914,VALID,69,VALID,0,
2009-08-18, 03:24:00,VALID,915.686,VALID,0,VALID,100,VALID,-0.0169808,VALID,19.2044,VALID,69,VALID,0,
2009-08-18, 03:25:00,VALID,915.673,VALID,0,VALID,100,VALID,-0.0169808,VALID,19.2141,VALID,69,VALID,0,
2009-08-18, 03:26:00,VALID,915.668,VALID,0,VALID,100,VALID,-0.0169808,VALID,19.2496,VALID,69,VALID,0,
2009-08-18, 03:27:00,VALID,915.671,VALID,0,VALID,100,VALID,-0.0169808,VALID,19.2985,VALID,69,VALID,0,
2009-08-18, 03:28:00,VALID,915.67,VALID,0,VALID,100,VALID,0,VALID,19.3182,VALID,69,VALID,0,
2009-08-18, 03:29:00,VALID,915.656,VALID,0,VALID,100,VALID,-0.0169808,VALID,19.2758,VALID,69,VALID,0,
2009-08-18, 03:30:00,VALID,915.624,VALID,0,VALID,100,VALID,-0.0679233,VALID,19.259,VALID,69,VALID,0,
2009-08-18, 03:31:00,VALID,915.606,VALID,0,VALID,100,VALID,-0.0169808,VALID,19.2855,VALID,69,VALID,0,
2009-08-18, 03:32:00,VALID,915.592,VALID,0,VALID,100,VALID,-0.0169808,VALID,19.2985,VALID,69,VALID,0,
2009-08-18, 03:33:00,VALID,915.583,VALID,0,VALID,100,VALID,0,VALID,19.2887,VALID,69,VALID,0,
2009-08-18, 03:34:00,VALID,915.576,VALID,0,VALID,100,VALID,0,VALID,19.2593,VALID,69,VALID,0,
2009-08-18, 03:35:00,VALID,915.566,VALID,0,VALID,100,VALID,0,VALID,19.272,VALID,69,VALID,0,
2009-08-18, 03:36:00,VALID,915.572,VALID,0,VALID,100,VALID,0,VALID,19.3012,VALID,69,VALID,0,
2009-08-18, 03:37:00,VALID,915.559,VALID,0,VALID,100,VALID,-0.0169808,VALID,19.3045,VALID,69,VALID,0,
2009-08-18, 03:38:00,VALID,915.552,VALID,0,VALID,100,VALID,0,VALID,19.2855,VALID,69,VALID,0,
2009-08-18, 03:39:00,VALID,915.544,VALID,0,VALID,100,VALID,0,VALID,19.2266,VALID,73,VALID,0,
2009-08-18, 03:40:00,VALID,915.536,VALID,0,VALID,100,VALID,0,VALID,19.1654,VALID,144,VALID,0,
2009-08-18, 03:41:00,VALID,915.541,VALID,0,VALID,100,VALID,0,VALID,19.1268,VALID,146,VALID,0.103125,
2009-08-18, 03:42:00,VALID,915.545,VALID,0,VALID,100,VALID,0,VALID,19.1133,VALID,144,VALID,0.015625,
2009-08-18, 03:43:00,VALID,915.52,VALID,0,VALID,100,VALID,-0.0339617,VALID,19.1687,VALID,142,VALID,0,
2009-08-18, 03:44:00,VALID,915.503,VALID,0,VALID,100,VALID,0,VALID,19.1784,VALID,140,VALID,0,
2009-08-18, 03:45:00,VALID,915.517,VALID,0,VALID,100,VALID,-0.0339617,VALID,19.1879,VALID,140,VALID,0,
2009-08-18, 03:46:00,VALID,915.506,VALID,0,VALID,100,VALID,-0.0339617,VALID,19.2336,VALID,141,VALID,0,
2009-08-18, 03:47:00,VALID,915.495,VALID,0,VALID,100,VALID,-0.0339617,VALID,19.2628,VALID,142,VALID,0,
2009-08-18, 03:48:00,VALID,915.509,VALID,0,VALID,100,VALID,-0.0169808,VALID,19.2725,VALID,148,VALID,0,
2009-08-18, 03:49:00,VALID,915.525,VALID,0,VALID,100,VALID,-0.0509425,VALID,19.269,VALID,152,VALID,0,